GW3296 Weather Reports


time (UTC)temp
C
wind
direction
speed
KPH
gust
KPH
rain 1hr
cm
rain 24hr
cm
rain mn
cm
humidity
%
barometer
mb
20260906022518 28 72 8.0 16.1 0.00 0.00 0.00 73 1015.2
20260906022013 29 356 6.4 9.7 0.00 0.00 0.00 73 1015.3
20260906021508 29 33 3.2 16.1 0.00 0.00 0.00 73 1015.2
20260906021002 29 53 3.2 6.4 0.00 0.00 0.00 74 1015.2
20260906020501 29 52 6.4 9.7 0.00 0.00 0.00 74 1015.1
20260906020001 29 47 3.2 4.8 0.00 0.00 0.00 74 1015.0
20260906015500 30 43 1.6 4.8 0.00 0.00 0.00 74 1014.9
20260906015000 30 22 9.7 12.9 0.00 0.00 0.00 74 1014.7
20260906014455 30 53 6.4 9.7 0.00 0.00 0.00 74 1014.7
20260906013946 30 37 8.0 8.0 0.00 0.00 0.00 74 1014.6
20260906013441 30 19 1.6 4.8 0.00 0.00 0.00 74 1014.6
20260906012937 30 6 0.0 4.8 0.00 0.00 0.00 75 1014.5
20260906012437 30 55 3.2 3.2 0.00 0.00 0.00 75 1014.6
20260906011936 30 95 3.2 3.2 0.00 0.00 0.00 74 1014.4
20260906011432 30 304 0.0 3.2 0.00 0.00 0.00 74 1014.7
20260906010927 30 150 0.0 3.2 0.00 0.00 0.00 73 1014.4
20260906010422 30 142 0.0 3.2 0.00 0.00 0.00 73 1014.3
20260906005918 30 39 3.2 4.8 0.00 0.00 0.00 72 1014.3
20260906005418 30 37 3.2 6.4 0.00 0.00 0.00 71 1014.3
20260906004916 30 51 0.0 6.4 0.00 0.00 0.00 71 1014.4
20260906004411 30 351 1.6 6.4 0.00 0.00 0.00 70 1014.3
20260906003906 31 50 3.2 4.8 0.00 0.00 0.00 69 1014.0
20260906003401 31 15 3.2 3.2 0.00 0.00 0.00 68 1014.0
20260906002857 31 4 4.8 4.8 0.00 0.00 0.00 68 1013.9
20260906002356 31 342 4.8 4.8 0.00 0.00 0.00 67 1014.2
20260906001852 31 342 0.0 4.8 0.00 0.00 0.00 66 1013.9
20260906001347 31 56 1.6 6.4 0.00 0.00 0.00 65 1014.1
20260906000842 32 9 3.2 6.4 0.00 0.00 0.00 65 1014.3
20260906000342 32 342 4.8 6.4 0.00 0.00 0.00 64 1014.0
20260905235843 32 347 3.2 3.2 0.00 0.00 0.00 64 1014.2
20260905235337 32 59 3.2 6.4 0.00 0.00 0.00 63 1014.0
20260905234832 32 24 6.4 8.0 0.00 0.00 0.00 62 1014.0
20260905234328 33 52 1.6 6.4 0.00 0.00 0.00 61 1014.0
20260905233823 33 349 9.7 11.3 0.00 0.00 0.00 60 1014.0
20260905233318 33 52 12.9 12.9 0.00 0.00 0.00 60 1014.2
20260905232816 33 302 4.8 9.7 0.00 0.00 0.00 60 1014.2
20260905232313 33 62 4.8 4.8 0.00 0.00 0.00 60 1014.1
20260905231808 33 19 0.0 6.4 0.00 0.00 0.00 60 1014.4
20260905231303 33 357 4.8 9.7 0.00 0.00 0.00 59 1014.2
20260905230800 33 331 1.6 8.0 0.00 0.00 0.00 59 1014.2
20260905230257 33 0 3.2 9.7 0.00 0.00 0.00 57 1014.1
20260905225757 34 355 12.9 19.3 0.00 0.00 0.00 55 1014.1
20260905225252 34 2 9.7 14.5 0.00 0.00 0.00 54 1013.9
20260905224752 34 350 8.0 14.5 0.00 0.00 0.00 55 1014.0
20260905224247 34 324 9.7 14.5 0.00 0.00 0.00 54 1013.9
20260905223743 34 0 12.9 14.5 0.00 0.00 0.00 54 1014.0
20260905223240 34 344 9.7 17.7 0.00 0.00 0.00 52 1013.9
20260905222735 35 38 1.6 16.1 0.00 0.00 0.00 53 1014.0
20260905222234 35 0 6.4 12.9 0.00 0.00 0.00 52 1013.9
20260905221730 35 3 6.4 19.3 0.00 0.00 0.00 51 1014.1
20260905221227 35 359 9.7 11.3 0.00 0.00 0.00 52 1013.9
20260905220723 35 311 3.2 6.4 0.00 0.00 0.00 52 1013.8
20260905220219 35 342 6.4 14.5 0.00 0.00 0.00 52 1014.0
20260905215718 35 35 4.8 11.3 0.00 0.00 0.00 51 1013.8
20260905215214 35 349 3.2 8.0 0.00 0.00 0.00 51 1013.8
20260905214709 35 315 9.7 14.5 0.00 0.00 0.00 50 1013.8
20260905214204 35 329 8.0 9.7 0.00 0.00 0.00 50 1013.9
20260905213700 36 349 3.2 9.7 0.00 0.00 0.00 50 1013.9
20260905213155 35 341 3.2 9.7 0.00 0.00 0.00 52 1014.0
20260905212650 35 356 8.0 16.1 0.00 0.00 0.00 51 1014.0
20260905212150 35 309 6.4 12.9 0.00 0.00 0.00 51 1014.0
20260905211644 36 335 4.8 11.3 0.00 0.00 0.00 49 1014.0
20260905211140 36 263 4.8 16.1 0.00 0.00 0.00 49 1013.8
20260905210637 36 6 4.8 12.9 0.00 0.00 0.00 50 1013.8
20260905210137 35 255 4.8 11.3 0.00 0.00 0.00 50 1014.1
20260905205635 36 7 6.4 12.9 0.00 0.00 0.00 49 1014.2
20260905205130 35 318 3.2 8.0 0.00 0.00 0.00 50 1014.0
20260905204629 35 318 11.3 14.5 0.00 0.00 0.00 49 1014.1
20260905204125 35 77 3.2 12.9 0.00 0.00 0.00 50 1014.1
20260905203625 35 19 8.0 14.5 0.00 0.00 0.00 50 1014.2
20260905203120 35 314 12.9 14.5 0.00 0.00 0.00 49 1014.0
20260905202616 35 311 9.7 12.9 0.00 0.00 0.00 50 1014.2
20260905202111 35 269 1.6 11.3 0.00 0.00 0.00 51 1014.4
20260905201607 35 320 4.8 14.5 0.00 0.00 0.00 50 1014.4
20260905201106 35 333 6.4 17.7 0.00 0.00 0.00 50 1014.4
20260905200602 35 30 9.7 11.3 0.00 0.00 0.00 49 1014.4
20260905200056 35 15 8.0 14.5 0.00 0.00 0.00 48 1014.1
20260905195555 36 276 9.7 17.7 0.00 0.00 0.00 47 1014.2
20260905195051 36 293 11.3 19.3 0.00 0.00 0.00 47 1014.3
20260905194551 36 1 9.7 9.7 0.00 0.00 0.00 46 1014.2
20260905194050 36 326 6.4 14.5 0.00 0.00 0.00 46 1014.4
20260905193545 36 352 8.0 14.5 0.00 0.00 0.00 45 1014.4
20260905193041 36 311 6.4 16.1 0.00 0.00 0.00 43 1014.5
20260905192536 36 251 14.5 20.9 0.00 0.00 0.00 44 1014.7
20260905192032 36 35 3.2 20.9 0.00 0.00 0.00 44 1014.6
20260905191530 36 11 9.7 14.5 0.00 0.00 0.00 46 1014.7
20260905191030 36 272 4.8 11.3 0.00 0.00 0.00 44 1014.6
20260905190527 36 17 3.2 16.1 0.00 0.00 0.00 45 1014.5
20260905190022 36 273 9.7 11.3 0.00 0.00 0.00 47 1014.7
20260905185521 35 17 4.8 16.1 0.00 0.00 0.00 47 1014.6
20260905185020 36 6 1.6 11.3 0.00 0.00 0.00 46 1014.8
20260905184515 35 254 3.2 14.5 0.00 0.00 0.00 48 1014.9
20260905184014 35 317 6.4 12.9 0.00 0.00 0.00 48 1014.9
20260905183514 35 4 4.8 14.5 0.00 0.00 0.00 47 1015.0
20260905183009 36 214 8.0 17.7 0.00 0.00 0.00 46 1015.1
20260905182508 35 332 3.2 11.3 0.00 0.00 0.00 47 1014.9
20260905182003 35 276 17.7 17.7 0.00 0.00 0.00 47 1014.8
20260905181458 35 320 3.2 8.0 0.00 0.00 0.00 49 1015.1
20260905180957 35 314 8.0 11.3 0.00 0.00 0.00 47 1015.2
20260905180452 35 271 9.7 16.1 0.00 0.00 0.00 48 1015.2
20260905175947 35 314 1.6 9.7 0.00 0.00 0.00 47 1015.2
20260905175447 35 331 4.8 8.0 0.00 0.00 0.00 48 1015.2
20260905174942 35 271 4.8 17.7 0.00 0.00 0.00 47 1015.4
20260905174437 35 8 4.8 9.7 0.00 0.00 0.00 49 1015.3
20260905173933 35 299 3.2 14.5 0.00 0.00 0.00 49 1015.4
20260905173430 35 311 11.3 12.9 0.00 0.00 0.00 49 1015.4
20260905172925 35 320 6.4 8.0 0.00 0.00 0.00 48 1015.4
20260905172422 35 335 3.2 8.0 0.00 0.00 0.00 49 1015.5
20260905171918 34 343 0.0 14.5 0.00 0.00 0.00 50 1015.5
20260905171415 34 348 1.6 6.4 0.00 0.00 0.00 50 1015.5
20260905170911 34 323 14.5 14.5 0.00 0.00 0.00 51 1015.6
20260905170407 34 65 4.8 8.0 0.00 0.00 0.00 50 1015.7
20260905165906 34 340 6.4 9.7 0.00 0.00 0.00 51 1015.5
20260905165401 34 346 3.2 8.0 0.00 0.00 0.00 51 1015.6
20260905164856 34 1 6.4 9.7 0.00 0.00 0.00 51 1015.7
20260905164351 34 55 1.6 9.7 0.00 0.00 0.00 49 1015.7
20260905163846 34 288 3.2 3.2 0.00 0.00 0.00 53 1015.6
20260905163343 33 65 3.2 4.8 0.00 0.00 0.00 54 1015.7
20260905162838 33 55 3.2 6.4 0.00 0.00 0.00 53 1015.7
20260905162338 33 324 0.0 8.0 0.00 0.00 0.00 53 1015.6
20260905161832 33 320 3.2 9.7 0.00 0.00 0.00 53 1015.6
20260905161332 33 16 0.0 6.4 0.00 0.00 0.00 54 1015.5
20260905160830 33 279 1.6 8.0 0.00 0.00 0.00 55 1015.8
20260905160325 33 322 0.0 8.0 0.00 0.00 0.00 55 1015.9
20260905155819 33 1 3.2 4.8 0.00 0.00 0.00 54 1015.9
20260905155319 33 46 1.6 6.4 0.00 0.00 0.00 54 1016.0
20260905154813 32 24 8.0 8.0 0.00 0.00 0.00 54 1015.9
20260905154308 32 241 3.2 9.7 0.00 0.00 0.00 54 1015.9
20260905153804 32 277 6.4 9.7 0.00 0.00 0.00 54 1016.0
20260905153300 33 272 4.8 11.3 0.00 0.00 0.00 51 1015.6
20260905152800 32 311 4.8 4.8 0.00 0.00 0.00 54 1015.9
20260905152259 32 331 6.4 8.0 0.00 0.00 0.00 54 1015.6
20260905151754 32 284 3.2 4.8 0.00 0.00 0.00 56 1015.5
20260905151250 32 249 1.6 4.8 0.00 0.00 0.00 56 1015.6
20260905150750 32 260 3.2 6.4 0.00 0.00 0.00 54 1015.6
20260905150249 32 265 3.2 6.4 0.00 0.00 0.00 54 1015.5
20260905145747 32 157 0.0 3.2 0.00 0.00 0.00 56 1015.4
20260905145242 31 283 3.2 3.2 0.00 0.00 0.00 57 1015.4
20260905144740 31 247 4.8 6.4 0.00 0.00 0.00 56 1015.6
20260905144236 31 241 3.2 6.4 0.00 0.00 0.00 59 1015.6
20260905143735 31 197 0.0 3.2 0.00 0.00 0.00 60 1015.4
20260905143235 31 352 0.0 1.6 0.00 0.00 0.00 63 1015.7
20260905142733 30 13 0.0 1.6 0.00 0.00 0.00 65 1015.6
20260905142228 30 55 0.0 1.6 0.00 0.00 0.00 65 1015.7
20260905141724 30 62 0.0 1.6 0.00 0.00 0.00 64 1015.5
20260905141220 30 242 0.0 3.2 0.00 0.00 0.00 63 1015.7
20260905140715 30 212 1.6 1.6 0.00 0.00 0.00 63 1015.6
20260905140209 30 62 0.0 1.6 0.00 0.00 0.00 64 1015.7
20260905135703 29 329 0.0 1.6 0.00 0.00 0.00 66 1015.5
20260905135200 29 262 3.2 3.2 0.00 0.00 0.00 65 1015.7
20260905134659 29 291 1.6 3.2 0.00 0.00 0.00 65 1015.6
20260905134158 30 285 3.2 3.2 0.00 0.00 0.00 65 1015.8
20260905133653 30 294 3.2 6.4 0.00 0.00 0.00 65 1015.6
20260905133148 29 126 0.0 0.0 0.00 0.00 0.00 68 1015.7
20260905132647 28 142 0.0 0.0 0.00 0.00 0.00 68 1015.6
20260905132142 28 309 0.0 0.0 0.00 0.00 0.00 69 1015.7
20260905131637 28 322 0.0 0.0 0.00 0.00 0.00 70 1015.7
20260905131132 28 343 0.0 1.6 0.00 0.00 0.00 70 1015.6
20260905130627 27 180 0.0 0.0 0.00 0.00 0.00 70 1015.4
20260905130127 28 202 0.0 0.0 0.00 0.00 0.00 68 1015.4
20260905125626 29 333 0.0 0.0 0.00 0.00 0.00 65 1015.5
20260905125122 30 276 0.0 1.6 0.00 0.00 0.00 64 1015.4
20260905124619 28 309 0.0 3.2 0.00 0.00 0.00 69 1015.4
20260905124115 27 321 0.0 1.6 0.00 0.00 0.00 71 1015.5
20260905123610 28 173 0.0 1.6 0.00 0.00 0.00 69 1015.5
20260905123107 28 195 0.0 0.0 0.00 0.00 0.00 68 1015.6
20260905122607 27 243 0.0 0.0 0.00 0.00 0.00 72 1015.3
20260905122106 26 205 0.0 1.6 0.00 0.00 0.00 75 1015.1
20260905121601 25 45 0.0 0.0 0.00 0.00 0.00 79 1015.1
20260905121057 25 326 0.0 0.0 0.00 0.00 0.00 81 1015.2
20260905120555 24 5 0.0 0.0 0.00 0.00 0.00 82 1015.0
20260905120051 24 269 0.0 1.6 0.00 0.00 0.00 83 1015.2
20260905115550 23 15 0.0 0.0 0.00 0.00 0.00 84 1015.0
20260905115045 23 75 0.0 1.6 0.00 0.00 0.00 84 1015.1
20260905114544 23 221 0.0 0.0 0.00 0.00 0.00 84 1014.8
20260905114043 23 321 0.0 0.0 0.00 0.00 0.00 84 1014.9
20260905113538 23 255 0.0 0.0 0.00 0.00 0.00 83 1014.8
20260905113033 23 304 0.0 0.0 0.00 0.00 0.00 83 1014.6
20260905112529 23 37 0.0 0.0 0.00 0.00 0.00 83 1014.7
20260905112025 24 343 0.0 0.0 0.00 0.00 0.00 82 1014.8
20260905111524 24 333 0.0 0.0 0.00 0.00 0.00 81 1014.7
20260905111024 24 298 0.0 1.6 0.00 0.00 0.00 80 1014.8
20260905110523 24 125 0.0 0.0 0.00 0.00 0.00 81 1014.7
20260905110019 24 343 0.0 0.0 0.00 0.00 0.00 82 1014.6
20260905105513 24 343 0.0 0.0 0.00 0.00 0.00 82 1014.6
20260905105012 24 186 0.0 0.0 0.00 0.00 0.00 82 1014.8
20260905104509 23 157 0.0 0.0 0.00 0.00 0.00 83 1014.8
20260905104008 23 205 0.0 0.0 0.00 0.00 0.00 83 1014.5
20260905103503 24 340 0.0 1.6 0.00 0.00 0.00 82 1014.8
20260905102959 24 315 0.0 0.0 0.00 0.00 0.00 82 1014.8
20260905102455 24 320 0.0 0.0 0.00 0.00 0.00 81 1014.6
20260905101950 24 180 0.0 1.6 0.00 0.00 0.00 81 1014.6
20260905101449 25 137 0.0 1.6 0.00 0.00 0.00 80 1014.5
20260905100948 25 142 0.0 0.0 0.00 0.00 0.00 79 1014.8
20260905100444 25 310 0.0 1.6 0.00 0.00 0.00 79 1014.7
20260905095943 25 5 0.0 1.6 0.00 0.00 0.00 77 1014.7
20260905095444 25 142 0.0 1.6 0.00 0.00 0.00 77 1014.6
20260905094939 25 235 0.0 1.6 0.00 0.00 0.00 76 1014.7
20260905094434 25 152 0.0 1.6 0.00 0.00 0.00 77 1014.7
20260905093933 25 169 1.6 3.2 0.00 0.00 0.00 77 1014.7
20260905093429 25 235 0.0 1.6 0.00 0.00 0.00 75 1015.0
20260905092924 26 359 1.6 3.2 0.00 0.00 0.00 75 1014.9
20260905092419 26 326 0.0 1.6 0.00 0.00 0.00 73 1014.8
20260905091915 26 352 0.0 1.6 0.00 0.00 0.00 73 1014.7
20260905091415 26 245 0.0 1.6 0.00 0.00 0.00 73 1014.8
20260905090914 26 342 0.0 1.6 0.00 0.00 0.00 73 1014.7
20260905090409 26 315 0.0 3.2 0.00 0.00 0.00 73 1014.8
20260905085909 26 237 0.0 3.2 0.00 0.00 0.00 74 1015.0
20260905085408 26 153 1.6 1.6 0.00 0.00 0.00 74 1014.8
20260905084904 26 15 0.0 4.8 0.00 0.00 0.00 74 1015.0
20260905084403 26 10 0.0 4.8 0.00 0.00 0.00 74 1015.0
20260905083858 26 345 1.6 3.2 0.00 0.00 0.00 74 1015.1
20260905083354 26 281 3.2 4.8 0.00 0.00 0.00 75 1014.7
20260905082849 26 315 0.0 1.6 0.00 0.00 0.00 76 1015.0
20260905082345 26 310 0.0 1.6 0.00 0.00 0.00 76 1015.0
20260905081841 26 332 0.0 3.2 0.00 0.00 0.00 76 1015.1
20260905081336 26 338 1.6 1.6 0.00 0.00 0.00 75 1015.2
20260905080835 26 333 0.0 1.6 0.00 0.00 0.00 76 1015.1
20260905080335 26 134 0.0 3.2 0.00 0.00 0.00 76 1015.3
20260905075833 25 142 3.2 4.8 0.00 0.00 0.00 82 1015.4
20260905075328 25 230 0.0 0.0 0.00 0.00 0.00 85 1015.2
20260905074827 25 195 0.0 0.0 0.00 0.00 0.00 85 1015.3
20260905074323 25 195 0.0 0.0 0.00 0.00 0.00 84 1015.2
20260905073818 25 50 0.0 0.0 0.00 0.00 0.00 84 1015.3
20260905073313 25 50 0.0 0.0 0.00 0.00 0.00 83 1015.3
20260905072808 25 154 0.0 0.0 0.00 0.00 0.00 84 1015.2
20260905072305 25 194 0.0 0.0 0.00 0.00 0.00 83 1015.3
20260905071759 25 297 0.0 0.0 0.00 0.00 0.00 83 1015.3
20260905071255 25 32 0.0 0.0 0.00 0.00 0.00 83 1015.3
20260905070750 25 32 0.0 0.0 0.00 0.00 0.00 82 1015.3
20260905070247 25 32 0.0 0.0 0.00 0.00 0.00 82 1015.2
20260905065745 25 322 1.6 1.6 0.00 0.00 0.00 82 1015.1
20260905065244 26 195 0.0 0.0 0.00 0.00 0.00 81 1015.2
20260905064740 26 212 0.0 0.0 0.00 0.00 0.00 81 1015.1
20260905064235 26 333 0.0 0.0 0.00 0.00 0.00 80 1015.0
20260905063734 26 333 0.0 1.6 0.00 0.00 0.00 78 1015.2
20260905063230 26 315 1.6 1.6 0.00 0.00 0.00 76 1015.0
20260905062726 26 135 0.0 1.6 0.00 0.00 0.00 77 1015.0
20260905062225 26 260 0.0 0.0 0.00 0.00 0.00 77 1015.1
20260905061720 27 260 0.0 0.0 0.00 0.00 0.00 76 1015.1
20260905061215 27 315 0.0 0.0 0.00 0.00 0.00 75 1015.1
20260905060715 27 127 0.0 1.6 0.00 0.00 0.00 74 1015.3
20260905060212 27 324 0.0 1.6 0.00 0.00 0.00 73 1015.2
20260905055710 27 293 0.0 3.2 0.00 0.00 0.00 73 1015.2
20260905055205 27 150 3.2 3.2 0.00 0.00 0.00 75 1015.2
20260905054700 26 333 0.0 0.0 0.00 0.00 0.00 78 1015.1
20260905054156 27 257 0.0 0.0 0.00 0.00 0.00 79 1015.0
20260905053655 26 217 0.0 0.0 0.00 0.00 0.00 79 1015.2
20260905053150 27 66 0.0 0.0 0.00 0.00 0.00 79 1015.1
20260905052645 27 290 0.0 0.0 0.00 0.00 0.00 79 1015.1
20260905052140 27 309 1.6 3.2 0.00 0.00 0.00 78 1015.0
20260905051635 27 309 0.0 1.6 0.00 0.00 0.00 79 1015.1
20260905051132 26 156 0.0 0.0 0.00 0.00 0.00 81 1015.2
20260905050628 26 322 0.0 0.0 0.00 0.00 0.00 81 1015.3
20260905050125 26 322 0.0 0.0 0.00 0.00 0.00 81 1015.2
20260905045624 27 322 0.0 0.0 0.00 0.00 0.00 80 1015.2
20260905045120 27 284 0.0 0.0 0.00 0.00 0.00 80 1015.4
20260905044619 27 284 0.0 0.0 0.00 0.00 0.00 80 1015.2
20260905044120 27 284 0.0 0.0 0.00 0.00 0.00 80 1015.2
20260905043618 27 284 0.0 0.0 0.00 0.00 0.00 79 1015.1
20260905043114 27 284 0.0 1.6 0.00 0.00 0.00 79 1015.3
20260905042612 27 129 0.0 0.0 0.00 0.00 0.00 79 1015.4
20260905042108 27 322 0.0 0.0 0.00 0.00 0.00 79 1015.4
20260905041603 27 322 0.0 1.6 0.00 0.00 0.00 78 1015.4
20260905041059 27 304 0.0 3.2 0.00 0.00 0.00 77 1015.3
20260905040559 27 164 0.0 0.0 0.00 0.00 0.00 78 1015.4
20260905040057 27 309 0.0 0.0 0.00 0.00 0.00 78 1015.4
20260905035552 27 336 0.0 0.0 0.00 0.00 0.00 78 1015.5
20260905035049 27 336 0.0 0.0 0.00 0.00 0.00 77 1015.4
20260905034545 27 284 0.0 0.0 0.00 0.00 0.00 77 1015.4
20260905034039 27 315 0.0 0.0 0.00 0.00 0.00 77 1015.3
20260905033538 28 315 0.0 0.0 0.00 0.00 0.00 76 1015.2
20260905033034 28 129 0.0 1.6 0.00 0.00 0.00 76 1015.2
20260905032529 28 284 0.0 1.6 0.00 0.00 0.00 75 1015.2
20260905032024 28 293 1.6 1.6 0.00 0.00 0.00 74 1015.4
20260905031520 28 142 0.0 1.6 0.00 0.00 0.00 75 1015.3
20260905031019 27 230 0.0 0.0 0.00 0.00 0.00 78 1015.1
20260905030515 27 230 0.0 0.0 0.00 0.00 0.00 78 1015.2
20260905030015 28 230 0.0 0.0 0.00 0.00 0.00 77 1015.0
20260905025510 28 205 0.0 0.0 0.00 0.00 0.00 77 1015.0
20260905025006 28 15 0.0 0.0 0.00 0.00 0.00 77 1015.2
20260905024501 28 343 0.0 0.0 0.00 0.00 0.00 77 1014.8
20260905023956 28 322 0.0 0.0 0.00 0.00 0.00 76 1015.0
20260905023451 28 322 0.0 0.0 0.00 0.00 0.00 76 1015.1
20260905022950 28 322 0.0 0.0 0.00 0.00 0.00 75 1015.0